Location: Ford County Road and Bridge Department
(37.7686°N, 99.9762°W)
Time: 01:43:32
(UTC+00:00)

Ariane Rocket - Pass Details

Date: 18 January 2020
Orbit: 761 x 769 km, 98.7° (Epoch: 19 February)

Event Time Altitude Azimuth Distance (km) Brightness Sun altitude
Exits shadow 00:53:40 19° 79° (E) 1,774 4.2 -13.2°
Maximum altitude 00:54:37 20° 65° (ENE) 1,729 4.2 -13.4°
Drops below altitude 10° 00:58:11 10° 20° (NNE) 2,307 5.1 -14.0°
Sets 01:01:03 0° 4° (N) 3,239 6.1 -14.6°
